[[{"header":{"parameterUnit":"m.s-1","parameterCategory":1,"la1":30.2991,"la2":30.254,"lo1":-89.0895,"lo2":-89.0444,"dy":0.0017,"dx":0.0017,"nx":28,"ny":28,"refTime":"2025-04-09T03:00:00:Z","depth":0,"parameterNumber":2,"parameterNumberName":"U-component_of_WINDS"},"data":[0,0,0,0,0,0,0,0,0,0,0,0,0,0,0,0,0,0,0,0,0,0,0,0,0,0,0,0,0,0,0,0,0,0,0,0,0,0,0,0,0,0,0,0,0,0,0,0,0,0,0,0,0,0,0,0,0,0,3.5206,3.5207,0,3.5261,3.5262,3.5262,3.5187,3.5184,3.5182,3.5179,3.5236,3.524,3.5244,0,0,0,0,0,0,0,0,0,0,0,0,0,3.5035,3.5039,3.5206,3.5207,3.5207,3.5261,3.5262,3.5262,3.5188,3.5184,3.5181,3.5178,3.5235,3.524,3.5245,0,0,0,0,0,0,0,0,0,0,0,0,0,3.5102,3.504,3.5206,3.5177,3.5174,3.5261,3.5262,3.5263,3.5188,3.5184,3.518,3.5176,3.5233,3.5239,3.5245,3.5363,0,0,3.5264,3.5266,0,0,0,0,0,0,0,0,3.5098,3.5108,3.518,3.5179,3.5176,3.5213,3.5222,3.5296,3.5189,3.5183,3.5179,3.5174,3.5232,3.5238,3.5257,3.5366,3.5368,3.5264,3.5268,3.5271,3.5272,0,0,0,0,0,0,0,3.5094,3.5105,3.5228,3.5181,3.5179,3.516,3.5165,3.5236,3.523,3.5183,3.5178,3.5185,3.523,3.5251,3.5258,3.5369,3.5264,3.5269,3.5273,3.5276,3.5574,3.5578,0,0,0,0,0,0,3.5092,3.5102,3.5226,3.5229,3.5126,3.5166,3.5172,3.5205,3.5229,3.5228,3.5189,3.5182,3.5243,3.5251,3.526,3.5396,3.527,3.5276,3.528,3.557,3.5575,3.5579,0,0,0,0,0,0,3.5089,3.5104,3.5224,3.5164,3.5178,3.5174,3.5212,3.5209,3.523,3.5233,3.5231,3.5212,3.524,3.5251,3.5337,3.5397,3.5279,3.5284,3.5565,3.5571,3.5577,3.5673,0,0,0,0,0,0,3.5085,3.5104,3.5149,3.5166,3.5181,3.5301,3.5216,3.5213,3.524,3.5231,3.5254,3.5254,3.5238,3.5329,3.5343,3.5404,3.5289,3.5559,3.5567,3.5575,3.5665,3.5682,3.5697,0,0,0,0,0,3.5079,3.5175,3.5152,3.5167,3.5238,3.5305,3.5314,3.5294,3.5246,3.529,3.5292,3.5253,3.5389,3.5338,3.5354,3.5417,3.5555,3.5565,3.5574,3.5657,3.5679,3.5697,0,0,0,0,0,0,3.5167,3.5177,3.5151,3.5256,3.528,3.5292,3.5349,3.5317,3.5356,3.5347,3.532,3.5325,3.5417,3.5426,3.5369,3.5531,3.5464,3.5477,3.5521,3.5542,3.5558,3.5553,3.5294,0,0,0,0,0,3.5198,3.5252,3.5257,3.5349,3.5362,3.5354,3.5382,3.5364,3.5388,3.5398,3.5406,3.5431,3.5478,3.5511,3.5555,3.5666,3.5668,3.5717,3.5733,3.5746,3.5758,3.5813,3.5834,3.5611,3.5611,3.5611,0,0,3.5264,3.5276,3.5312,3.5367,3.5384,3.5438,3.5363,3.5425,3.5465,3.5408,3.5488,3.5495,3.5521,3.5619,3.5662,3.5629,3.582,3.5759,3.5769,3.5773,3.5825,3.5847,3.5865,3.5618,3.5617,3.5616,0,0,3.5411,3.5427,3.5503,3.5521,3.5546,3.5539,3.5557,3.5574,3.5575,3.5656,3.5613,3.566,3.5744,3.5763,3.5784,3.5935,3.59,3.595,3.6035,3.609,3.6107,3.6123,3.6174,3.6193,3.5962,3.5962,3.5962,0,3.549,3.5571,3.5547,3.5611,3.5635,3.5584,3.566,3.5679,3.5718,3.5736,3.5698,3.5799,3.5814,3.5913,3.595,3.5969,3.5988,3.5947,3.6107,3.6122,3.6136,3.6184,3.6204,3.5968,3.5967,3.5967,3.5966,0,3.5665,3.5722,3.5781,3.5818,3.5849,3.5919,3.5904,3.5939,3.5917,3.5914,3.5995,3.6009,3.6054,3.6077,3.6058,3.6173,3.6151,3.6111,3.6043,3.6163,3.6208,3.6227,3.5976,3.5974,3.5973,3.5971,0,0,3.5872,3.5891,3.5913,3.5928,3.5951,3.5994,3.606,3.6103,3.6132,3.616,3.6214,3.6285,3.6246,3.6269,3.6251,3.63,3.6415,3.6252,3.6252,3.628,3.654,3.6569,3.6591,3.6392,3.6395,3.6398,3.6537,0,3.6017,3.6132,3.611,3.6221,3.6271,3.6222,3.6279,3.6299,3.6297,3.6339,3.6337,3.6386,3.6333,3.6346,3.6392,3.6391,3.6466,3.6381,3.644,3.6443,3.6433,3.6615,3.6647,3.6778,3.6555,3.6558,3.656,0,3.6203,3.6235,3.6351,3.6362,3.6382,3.6435,3.647,3.6512,3.6532,3.6527,3.6551,3.6523,3.6588,3.652,3.6607,3.655,3.6572,3.6576,3.658,3.6584,3.6508,3.6622,3.6819,3.6838,3.6588,3.6586,3.6584,0,3.6339,3.6412,3.6489,3.6503,3.6519,3.6556,3.6565,3.6581,3.6607,3.6638,3.6654,3.6693,3.6714,3.6744,3.6727,3.6679,3.6816,3.6747,3.6812,3.6813,3.6843,3.6841,3.7045,3.6861,3.6861,3.686,3.686,0,3.6503,3.6575,3.655,3.6598,3.6676,3.665,3.6728,3.673,3.6745,3.6791,3.6751,3.6796,3.6771,3.6813,3.68,3.6872,3.6883,3.6879,3.6875,3.6882,3.6882,3.6896,3.6886,3.6865,3.6864,3.6863,3.6862,0,3.6668,3.6654,3.6735,3.6742,3.6745,3.6803,3.6808,3.6852,3.6845,3.6904,3.6917,3.6907,3.6954,3.694,3.6992,3.6982,3.7074,3.7059,3.7067,3.7062,3.7127,3.712,3.7345,3.7372,3.7173,3.7175,3.7177,0,3.6773,3.6827,3.6838,3.6866,3.6876,3.6922,3.6947,3.6922,3.695,3.6975,3.7015,3.7058,3.7092,3.7169,3.7166,3.7205,3.7189,3.7265,3.7195,3.7199,3.7187,3.7183,3.7187,3.7279,3.7281,3.7283,3.7285,0,3.696,3.6949,3.6987,3.7021,3.7052,3.7079,3.7101,3.7126,3.7102,3.7135,3.7182,3.7208,3.7258,3.7301,3.7335,3.7343,3.731,3.7306,3.7323,3.7331,3.7332,3.7329,3.7103,3.7301,3.73,3.7299,3.7298,3.7297,3.7097,3.7141,3.7155,3.7197,3.7211,3.7232,3.7272,3.7269,3.7308,3.7346,3.7329,3.7382,3.7398,3.744,3.7452,3.7492,3.7463,3.7488,3.7494,3.75,3.7507,3.7326,3.7499,3.7498,3.7498,3.7497,3.7497,0,3.728,3.7285,3.7324,3.7356,3.7388,3.7352,3.7374,3.7404,3.7451,3.7468,3.75,3.7552,3.7593,3.7592,3.7629,3.7661,3.7647,3.7672,3.7668,3.767,3.7532,3.7513,3.7683,3.7683,3.7683,3.7683,3.7683,3.7683,3.7379,3.7451,3.7441,3.7518,3.7523,3.7573,3.7589,3.7607,3.762,3.7679,3.7712,3.771,3.772,3.7756,3.7791,3.779,3.7804,3.7835,3.7828,3.7699,3.768,3.7663,3.7644,3.7839,3.7839,3.7961,3.7963,3.7963]},{"header":{"parameterUnit":"m.s-1","parameterCategory":1,"la1":30.2991,"la2":30.254,"lo1":-89.0895,"lo2":-89.0444,"dy":0.0017,"dx":0.0017,"nx":28,"ny":28,"refTime":"2025-04-09T03:00:00:Z","depth":0,"parameterNumber":3,"parameterNumberName":"V-component_of_WINDS"},"data":[0,0,0,0,0,0,0,0,0,0,0,0,0,0,0,0,0,0,0,0,0,0,0,0,0,0,0,0,0,0,0,0,0,0,0,0,0,0,0,0,0,0,0,0,0,0,0,0,0,0,0,0,0,0,0,0,0,0,-0.865,-0.8649,0,-0.849,-0.8489,-0.8487,-0.8406,-0.8406,-0.8406,-0.8406,-0.8236,-0.8232,-0.8227,0,0,0,0,0,0,0,0,0,0,0,0,0,-0.888,-0.8876,-0.8651,-0.8649,-0.8647,-0.8491,-0.8489,-0.8486,-0.8406,-0.8406,-0.8406,-0.8406,-0.8238,-0.8232,-0.8227,0,0,0,0,0,0,0,0,0,0,0,0,0,-0.8756,-0.8875,-0.8651,-0.8588,-0.858,-0.8491,-0.8488,-0.8486,-0.8406,-0.8406,-0.8406,-0.8406,-0.8239,-0.8233,-0.8226,-0.8186,0,0,-0.8206,-0.8203,0,0,0,0,0,0,0,0,-0.8763,-0.8748,-0.8599,-0.8592,-0.8584,-0.8468,-0.8507,-0.8385,-0.8406,-0.8472,-0.8406,-0.8406,-0.8313,-0.83,-0.827,-0.8178,-0.8171,-0.8205,-0.8201,-0.8198,-0.8196,0,0,0,0,0,0,0,-0.8772,-0.8754,-0.8587,-0.8597,-0.8587,-0.8565,-0.8548,-0.8484,-0.8395,-0.8466,-0.846,-0.8442,-0.8309,-0.8277,-0.8266,-0.8168,-0.8205,-0.8199,-0.8195,-0.8193,-0.8034,-0.8033,0,0,0,0,0,0,-0.8792,-0.8762,-0.8592,-0.8582,-0.8675,-0.8561,-0.8541,-0.8505,-0.8395,-0.8378,-0.8443,-0.8439,-0.8288,-0.8274,-0.8259,-0.8204,-0.8198,-0.8192,-0.8188,-0.8034,-0.8034,-0.8033,0,0,0,0,0,0,-0.8797,-0.8777,-0.8599,-0.867,-0.8646,-0.8557,-0.8517,-0.8502,-0.847,-0.8377,-0.836,-0.8427,-0.8288,-0.8269,-0.8205,-0.8197,-0.8189,-0.8183,-0.8034,-0.8034,-0.8033,-0.8095,0,0,0,0,0,0,-0.8804,-0.878,-0.8765,-0.8671,-0.8642,-0.8549,-0.8517,-0.8499,-0.8459,-0.8453,-0.8358,-0.8342,-0.8286,-0.8215,-0.8198,-0.8188,-0.8178,-0.8034,-0.8034,-0.8034,-0.8093,-0.8096,-0.8099,0,0,0,0,0,-0.8812,-0.8788,-0.8765,-0.8745,-0.8623,-0.8549,-0.8532,-0.847,-0.8459,-0.8443,-0.8383,-0.8345,-0.8201,-0.821,-0.819,-0.8177,-0.8034,-0.8034,-0.8034,-0.8091,-0.8096,-0.8099,0,0,0,0,0,0,-0.8882,-0.8774,-0.8748,-0.8692,-0.863,-0.8535,-0.8513,-0.8477,-0.8416,-0.8412,-0.8336,-0.8315,-0.8258,-0.8211,-0.8222,-0.8132,-0.8114,-0.8109,-0.8165,-0.8168,-0.8171,-0.8184,-0.8172,0,0,0,0,0,-0.8891,-0.8842,-0.875,-0.8709,-0.868,-0.8602,-0.8567,-0.8525,-0.8457,-0.843,-0.8365,-0.83,-0.8239,-0.8201,-0.814,-0.8086,-0.8063,-0.8067,-0.807,-0.8074,-0.807,-0.8037,-0.8037,-0.8032,-0.8032,-0.8032,0,0,-0.8909,-0.8844,-0.8817,-0.8722,-0.8669,-0.8618,-0.858,-0.8528,-0.8489,-0.8421,-0.8358,-0.8308,-0.8229,-0.817,-0.814,-0.8129,-0.8067,-0.8073,-0.8076,-0.8071,-0.8036,-0.8037,-0.8037,-0.8032,-0.8032,-0.8032,0,0,-0.8915,-0.8862,-0.8822,-0.877,-0.8691,-0.8639,-0.863,-0.854,-0.8505,-0.844,-0.8388,-0.8339,-0.8237,-0.8183,-0.8142,-0.8127,-0.809,-0.8109,-0.8126,-0.8095,-0.8095,-0.8095,-0.8089,-0.8088,-0.8107,-0.8107,-0.8107,0,-0.8947,-0.887,-0.8806,-0.8756,-0.8715,-0.8653,-0.8611,-0.8563,-0.8468,-0.844,-0.8429,-0.8299,-0.8242,-0.8168,-0.8165,-0.8134,-0.8119,-0.812,-0.8101,-0.81,-0.8099,-0.8092,-0.809,-0.811,-0.8109,-0.8109,-0.8109,0,-0.8912,-0.8859,-0.8836,-0.8748,-0.8704,-0.8658,-0.8586,-0.8548,-0.8509,-0.8458,-0.8392,-0.8321,-0.8245,-0.8224,-0.8185,-0.8144,-0.8139,-0.8116,-0.8096,-0.8103,-0.8096,-0.8093,-0.8114,-0.8113,-0.8112,-0.8111,0,0,-0.8958,-0.8835,-0.8827,-0.8786,-0.8694,-0.8651,-0.8602,-0.8529,-0.8498,-0.8434,-0.8389,-0.8304,-0.8282,-0.8235,-0.8189,-0.8161,-0.8153,-0.814,-0.8137,-0.8144,-0.8103,-0.8121,-0.8119,-0.8128,-0.8127,-0.8126,-0.8109,0,-0.8951,-0.8863,-0.8803,-0.8737,-0.8687,-0.8627,-0.8584,-0.8522,-0.8472,-0.842,-0.8364,-0.8305,-0.828,-0.8251,-0.8221,-0.8161,-0.8143,-0.8161,-0.8084,-0.8082,-0.8106,-0.8115,-0.8135,-0.8122,-0.8106,-0.8105,-0.8105,0,-0.8932,-0.8871,-0.8801,-0.8714,-0.869,-0.8653,-0.8581,-0.8533,-0.846,-0.8425,-0.8374,-0.8327,-0.827,-0.8256,-0.8176,-0.819,-0.8154,-0.812,-0.8118,-0.8108,-0.8094,-0.8105,-0.8117,-0.8115,-0.8099,-0.81,-0.81,0,-0.8972,-0.8873,-0.8818,-0.8784,-0.8681,-0.8656,-0.8611,-0.8539,-0.8498,-0.8434,-0.8407,-0.8337,-0.8298,-0.8244,-0.8178,-0.8174,-0.8105,-0.8085,-0.8073,-0.8075,-0.8061,-0.8063,-0.8067,-0.8039,-0.8039,-0.804,-0.804,0,-0.8971,-0.893,-0.8834,-0.8801,-0.8752,-0.8683,-0.8636,-0.8586,-0.8522,-0.8476,-0.8419,-0.8376,-0.8293,-0.8239,-0.8187,-0.8128,-0.8111,-0.8081,-0.8067,-0.8086,-0.809,-0.8061,-0.806,-0.8039,-0.8039,-0.8039,-0.8039,0,-0.9008,-0.8943,-0.8878,-0.8786,-0.8762,-0.873,-0.865,-0.8614,-0.8561,-0.8503,-0.8485,-0.8402,-0.8336,-0.8265,-0.8175,-0.814,-0.8083,-0.8065,-0.8109,-0.8101,-0.8093,-0.8095,-0.8079,-0.8072,-0.805,-0.8051,-0.8051,0,-0.9012,-0.8979,-0.8884,-0.885,-0.8807,-0.8752,-0.8711,-0.8641,-0.86,-0.8514,-0.8488,-0.8418,-0.8358,-0.8255,-0.8185,-0.8115,-0.8094,-0.8093,-0.8083,-0.8102,-0.8093,-0.8096,-0.8092,-0.8097,-0.8097,-0.8098,-0.8098,0,-0.9025,-0.8994,-0.8938,-0.887,-0.8823,-0.8765,-0.8705,-0.868,-0.8597,-0.8554,-0.8486,-0.844,-0.8348,-0.8279,-0.8201,-0.8152,-0.8111,-0.8102,-0.8095,-0.8114,-0.814,-0.8125,-0.8117,-0.8102,-0.8102,-0.8102,-0.8101,-0.8101,-0.9045,-0.9013,-0.8941,-0.888,-0.8827,-0.8773,-0.8734,-0.8676,-0.862,-0.8541,-0.8502,-0.8434,-0.836,-0.8251,-0.8204,-0.8149,-0.8136,-0.8127,-0.8124,-0.8123,-0.8128,-0.815,-0.8134,-0.8134,-0.8134,-0.8133,-0.8133,0,-0.9055,-0.9006,-0.895,-0.8869,-0.882,-0.8787,-0.8718,-0.8679,-0.8621,-0.8557,-0.85,-0.8421,-0.8354,-0.8278,-0.8205,-0.8175,-0.8154,-0.8159,-0.816,-0.8149,-0.8143,-0.8156,-0.8177,-0.8177,-0.8177,-0.8177,-0.8177,-0.8177,-0.9055,-0.8999,-0.8959,-0.8875,-0.8825,-0.876,-0.8724,-0.8672,-0.862,-0.8536,-0.848,-0.8432,-0.8362,-0.8283,-0.8219,-0.8198,-0.8174,-0.8184,-0.8157,-0.8153,-0.815,-0.8146,-0.8158,-0.8179,-0.8179,-0.8168,-0.8168,-0.8168]}]]